Temp_Advection
nan nan nan nan nan nan nan nan nan nan nan nan nan nan nan nan nan nan nan nan nan nan nan nan nan nan nan nan nan nan nan nan
nan -0 -0 -0 -0 -0 -0 -0 -0 0 0 -0 -0 -0 -0 -0 0 0 0 0 0 0 0 0 0 0 0 0 0 0 -0 nan
nan -0 -0 -1 -0 -0 -0 -0 -0 0 0 0 -0 -0 -0 0 0 0 -0 0 1 0 0 0 0 0 1 0 0 0 -0 nan
nan -0 -0 -0 -0 -0 -0 0 0 0 0 0 0 -0 -0 0 0 -0 0 1 1 0 0 0 1 1 0 0 0 -0 -0 nan
nan -0 -1 -0 0 0 0 0 0 0 1 0 -0 -0 -0 1 1 0 0 1 1 1 1 1 0 0 0 0 0 -0 -0 nan
nan -0 -0 1 0 0 0 1 1 1 0 0 0 0 1 1 0 0 1 1 1 1 1 0 0 0 0 0 0 0 -0 nan
nan 0 1 0 0 0 0 0 1 1 0 -0 -0 -0 1 2 0 0 1 1 0 0 0 0 0 0 0 0 0 1 0 nan
nan 0 -0 -0 0 0 1 0 0 0 0 0 0 0 2 1 -0 0 0 0 0 0 0 0 0 -0 1 1 1 0 0 nan
nan -0 0 1 0 0 0 0 0 1 1 0 1 0 2 1 -0 -0 0 0 1 0 0 1 -1 0 2 1 0 0 0 nan
nan 1 1 0 0 1 1 1 1 1 1 1 0 1 2 -1 -1 -0 0 1 0 -0 1 1 1 2 1 0 -0 0 0 nan
nan 0 0 -0 0 1 0 0 1 1 1 1 1 0 -1 -1 -0 1 1 0 1 2 3 2 2 0 -0 0 0 -0 -0 nan
nan 0 -0 0 1 0 -0 0 1 1 1 1 -0 -0 -0 0 1 1 1 2 3 3 2 1 0 0 0 0 -0 -0 -0 nan
nan 0 -0 0 0 0 0 1 1 1 0 -0 0 0 0 1 2 2 2 2 2 2 1 1 0 1 0 -0 -0 -0 0 nan
nan 0 0 1 1 1 1 0 0 0 0 1 1 1 1 2 2 1 1 2 2 1 1 0 1 0 -0 -0 -0 0 0 nan
nan 0 1 1 1 0 -0 0 1 1 1 1 2 2 1 1 1 1 1 1 1 1 1 0 0 0 0 -0 -0 -0 0 nan
nan 0 0 0 0 -0 0 1 1 1 1 2 2 1 1 1 1 1 1 1 1 1 0 0 0 0 0 0 0 0 0 nan
nan 0 0 0 0 0 0 0 0 0 1 1 1 1 1 1 2 2 1 1 0 -0 -0 1 0 -0 0 0 0 0 0 nan
nan -0 -0 -0 -0 0 0 0 0 1 1 1 1 1 2 2 1 1 0 -0 -0 0 0 0 0 -0 -0 0 0 0 0 nan
nan nan nan nan nan nan nan nan nan nan nan nan nan nan nan nan nan nan nan nan nan nan nan nan nan nan nan nan nan nan nan nan
Wind_Speed
28 26 28 29 29 28 25 21 21 24 25 26 26 26 24 20 18 15 14 15 17 17 17 16 15 14 10 9 11 13 11 9
26 27 27 28 27 28 27 26 23 25 29 30 30 28 25 25 19 18 18 15 16 18 17 16 16 12 10 12 12 9 8 11
28 28 30 31 31 30 29 27 26 27 28 29 29 27 26 24 21 21 19 16 16 16 16 16 14 13 11 10 8 8 10 12
30 30 31 33 35 34 32 31 30 30 30 30 31 29 31 28 24 25 22 18 17 16 17 16 15 12 10 9 9 11 11 14
33 34 34 36 35 33 31 29 30 31 32 33 34 32 34 29 23 23 19 19 18 19 20 17 14 11 11 9 10 12 14 17
36 38 38 38 35 34 31 31 34 34 35 35 35 33 33 27 23 20 20 22 22 21 19 16 14 13 12 12 10 13 20 19
40 39 38 37 38 37 36 35 35 35 37 37 36 33 32 29 25 22 22 23 23 22 20 19 18 18 18 18 16 26 16 17
43 42 42 41 40 40 39 38 38 37 36 38 38 37 33 27 24 21 22 24 25 24 22 22 24 23 24 22 22 18 22 24
44 44 43 42 42 41 38 38 39 37 38 35 39 41 35 29 26 22 20 23 27 27 26 30 29 25 28 22 25 18 15 17
41 43 43 42 42 41 37 34 40 40 39 37 39 36 36 30 25 24 24 27 30 30 28 33 30 27 22 21 13 12 13 14
30 36 40 40 39 39 34 34 31 34 39 39 40 34 35 28 25 26 28 28 33 35 29 29 24 17 13 10 9 11 14 16
17 22 26 30 32 32 30 34 33 31 31 34 33 31 28 25 24 26 27 28 32 30 25 18 16 11 8 8 10 15 17 15
11 12 13 15 19 25 29 33 32 28 28 25 25 25 25 25 28 26 27 27 26 26 17 14 10 10 8 8 19 13 15 15
14 16 18 20 22 25 26 21 18 19 22 24 24 26 26 23 22 22 20 22 19 13 11 14 16 5 13 19 14 18 15 16
16 17 18 19 22 23 20 19 19 20 21 24 27 25 21 20 20 20 19 18 14 19 16 8 13 20 17 16 19 16 17 20
14 15 14 17 18 19 20 21 21 22 24 23 21 21 21 20 19 18 19 20 17 12 16 15 23 21 16 15 16 20 21 22
4 1 5 8 12 15 18 18 17 17 17 16 18 20 19 20 19 19 18 15 14 15 21 26 23 15 14 17 21 23 22 24
10 10 7 5 4 5 8 10 12 14 15 16 17 18 19 16 14 14 11 7 11 23 23 17 14 16 19 22 23 25 25 25
12 10 9 6 3 2 4 7 10 12 14 14 16 17 17 16 9 3 14 20 26 15 11 13 19 21 21 23 25 27 28 28
Wind_Direction
203 205 203 202 203 204 204 203 202 201 203 203 206 212 219 222 219 222 225 233 237 233 230 237 240 240 245 257 277 295 308 329
213 213 215 214 211 209 209 209 205 205 205 205 212 218 227 222 221 224 224 241 244 237 235 238 235 234 242 261 277 299 324 344
216 212 214 217 218 216 215 217 216 215 213 215 221 232 235 232 224 227 234 247 243 232 231 228 230 234 247 264 281 308 328 336
217 217 216 216 219 217 217 218 218 220 222 223 229 235 237 235 221 227 239 240 233 223 222 225 227 233 249 268 294 319 323 327
217 219 220 221 220 221 223 223 223 225 227 228 230 238 239 241 236 240 242 235 223 218 223 220 225 239 256 278 303 317 325 329
223 224 224 225 225 225 227 229 228 229 231 232 234 239 243 244 240 243 247 227 217 217 217 221 233 249 264 272 276 311 309 311
229 233 234 232 230 229 229 232 235 236 237 237 238 246 253 246 236 244 240 224 222 222 226 232 245 256 257 258 273 297 306 311
228 230 232 233 232 232 231 233 236 239 236 239 240 243 253 246 239 246 237 230 227 228 233 242 244 242 263 263 289 293 295 296
231 232 232 233 234 235 234 235 237 243 240 240 240 242 248 245 241 236 241 242 233 229 235 245 245 273 257 283 302 302 298 290
232 233 234 233 236 237 236 240 242 244 246 244 246 244 245 252 235 235 238 241 236 242 260 256 251 255 287 298 293 290 300 307
233 236 236 236 240 241 238 238 248 253 248 247 248 251 252 257 245 246 244 250 259 251 247 243 244 285 293 276 297 313 318 305
233 238 241 243 244 246 245 241 246 249 250 249 250 255 259 253 260 258 258 252 247 243 235 242 271 265 255 298 321 307 295 294
198 203 215 228 237 242 244 243 247 252 253 249 250 251 254 252 259 248 243 247 238 230 249 258 244 241 263 287 293 297 297 295
220 218 219 218 220 227 237 245 252 254 256 252 257 253 250 255 243 239 244 223 224 241 250 253 262 214 262 299 305 306 302 311
238 240 239 238 239 241 251 258 260 264 255 254 249 249 245 227 234 229 225 227 222 229 255 209 220 277 288 298 295 291 292 299
252 260 262 259 258 258 259 257 254 257 262 256 245 230 221 226 216 221 210 225 239 212 192 255 281 271 285 292 277 287 289 293
85 234 264 270 275 277 277 276 275 275 259 246 225 222 219 216 217 208 208 190 188 200 277 282 282 280 290 279 288 284 281 284
74 69 62 39 351 302 281 269 255 239 224 212 211 203 201 192 180 176 184 212 269 283 283 282 280 283 281 280 280 283 283 284
84 74 59 43 19 297 241 223 216 208 200 200 192 186 170 155 160 213 310 302 295 295 283 283 286 288 284 284 287 284 284 282
Height
1514 1518 1521 1524 1527 1530 1532 1534 1537 1541 1544 1546 1550 1552 1553 1556 1558 1560 1562 1564 1564 1564 1566 1568 1570 1571 1568 1570 1572 1572 1570 1568
1513 1517 1519 1522 1524 1527 1529 1532 1535 1538 1540 1542 1546 1548 1550 1553 1555 1558 1560 1561 1561 1561 1563 1565 1568 1568 1567 1569 1570 1569 1566 1563
1509 1513 1515 1517 1520 1523 1526 1529 1533 1535 1538 1540 1544 1546 1548 1550 1552 1554 1556 1557 1558 1559 1561 1564 1564 1565 1565 1567 1566 1565 1562 1561
1504 1506 1510 1514 1516 1519 1522 1525 1529 1532 1534 1537 1540 1542 1544 1545 1547 1551 1553 1553 1554 1556 1559 1559 1561 1562 1562 1563 1562 1561 1559 1559
1499 1503 1505 1507 1511 1516 1520 1524 1526 1529 1532 1534 1534 1537 1539 1541 1544 1549 1549 1549 1550 1554 1555 1556 1557 1558 1558 1558 1558 1559 1558 1556
1493 1496 1498 1504 1510 1513 1516 1519 1522 1525 1528 1530 1532 1533 1536 1539 1543 1544 1545 1547 1549 1550 1552 1552 1553 1553 1553 1553 1552 1554 1553 1554
1488 1492 1497 1501 1506 1509 1513 1515 1518 1521 1523 1526 1529 1531 1532 1535 1538 1540 1541 1543 1545 1547 1547 1547 1548 1548 1548 1548 1547 1548 1550 1549
1482 1486 1489 1494 1499 1503 1508 1512 1514 1517 1520 1523 1525 1527 1528 1530 1533 1535 1537 1538 1540 1542 1544 1544 1542 1541 1543 1545 1544 1545 1546 1545
1476 1479 1483 1488 1493 1497 1503 1507 1510 1513 1515 1518 1520 1522 1523 1526 1527 1530 1532 1534 1535 1535 1536 1539 1537 1538 1537 1540 1541 1541 1541 1540
1470 1474 1479 1484 1488 1492 1498 1503 1506 1509 1511 1514 1515 1517 1519 1520 1522 1524 1525 1527 1528 1528 1530 1533 1532 1533 1537 1537 1536 1537 1536 1535
1469 1472 1476 1480 1485 1489 1496 1499 1501 1504 1506 1508 1511 1512 1514 1516 1517 1518 1519 1521 1521 1522 1525 1526 1529 1533 1533 1533 1533 1533 1532 1531
1467 1470 1474 1478 1483 1487 1491 1494 1496 1499 1501 1504 1506 1508 1510 1511 1513 1514 1515 1516 1518 1521 1522 1525 1526 1528 1528 1529 1529 1528 1526 1525
1468 1470 1473 1476 1480 1483 1485 1489 1493 1496 1498 1500 1502 1504 1506 1507 1508 1508 1511 1515 1516 1518 1521 1523 1523 1524 1524 1526 1523 1522 1521 1521
1467 1469 1471 1473 1476 1480 1484 1489 1491 1493 1495 1496 1497 1499 1500 1502 1504 1508 1510 1512 1515 1518 1520 1522 1520 1521 1521 1520 1519 1519 1518 1517
1465 1467 1470 1472 1475 1478 1482 1484 1486 1488 1489 1491 1492 1494 1497 1500 1504 1505 1508 1511 1513 1511 1514 1518 1518 1516 1516 1516 1515 1514 1512 1510
1463 1465 1469 1471 1473 1475 1477 1479 1481 1483 1484 1485 1488 1492 1497 1499 1501 1503 1505 1505 1507 1511 1511 1512 1512 1510 1510 1509 1509 1508 1506 1504
1463 1464 1466 1468 1470 1473 1475 1477 1479 1480 1482 1485 1488 1492 1494 1495 1498 1501 1501 1502 1506 1508 1509 1506 1505 1504 1504 1504 1503 1501 1499 1497
1465 1466 1467 1468 1469 1471 1473 1475 1477 1478 1481 1484 1487 1490 1493 1496 1498 1500 1501 1502 1504 1504 1501 1501 1500 1500 1499 1498 1497 1494 1492 1490
1467 1468 1468 1469 1471 1472 1473 1474 1476 1479 1481 1485 1488 1491 1494 1496 1498 1500 1501 1500 1497 1496 1496 1497 1496 1495 1494 1492 1490 1487 1484 1482